Location: Unspecified
(0.0000°N, 0.0000°E)
Time: 14:19:21
(UTC+01:00)

USA 116 - Visible Passes

Search period start: 23 November 2017 00:00
Search period end: 03 December 2017 00:00
Orbit: 405 x 834 km, 97.9° (Epoch: 18 November)

Date Brightness Start Highest point End Pass type
(mag) Time Alt. Az. Time Alt. Az. Time Alt. Az.
23 Nov 4.4 06:21:21 10° S 06:26:08 79° WSW 06:31:22 10° NNW visible
25 Nov 7.2 05:14:52 10° ESE 05:17:32 14° ENE 05:20:17 10° NE visible
26 Nov 6.8 05:27:05 10° SE 05:30:52 21° ENE 05:34:47 10° NNE visible
27 Nov 6.2 05:39:47 10° SE 05:44:13 31° ENE 05:48:50 10° NNE visible
28 Nov 5.6 05:52:44 10° SSE 05:57:34 45° ENE 06:02:38 10° N visible
29 Nov 4.9 06:05:52 10° SSE 06:10:56 67° ENE 06:16:15 10° N visible
30 Nov 4.5 06:19:11 10° S 06:24:19 84° WSW 06:29:41 10° NNW visible
02 Dec 7.2 05:12:56 10° ESE 05:15:40 14° ENE 05:18:24 10° NE visible
